Watsonville, CA

8:10 AM PDT on July 24, 2017 (GMT -0700)
Watsonville Municipal

Weather History for KWVI - June, 2014

Change the Weather History Date:

Tuesday, June 17, 2014

  Actual Average Record
Temperature  
Mean Temperature 62 °F 62 °F  
Max Temperature 75 °F 73 °F 83 °F (2017)
Min Temperature 48 °F 51 °F 45 °F (2010)
Degree Days  
Heating Degree Days 3    
Month to date heating degree days 68  
Since 1 June heating degree days 68  
Since 1 July heating degree days 2388  
Cooling Degree Days 0    
Month to date cooling degree days 0  
Year to date cooling degree days 44  
Since 1 June cooling degree days 0  
Growing Degree Days 12 (Base 50)    
Moisture  
Dew Point 47 °F    
Average Humidity 62    
Maximum Humidity 86    
Minimum Humidity 38    
Precipitation  
Precipitation 0.00 in - 0.03 in (1960)
Month to date precipitation 0.01  
Year to date precipitation 8.18  
Since 1 July precipitation 9.25  
Sea Level Pressure  
Sea Level Pressure 29.94 in    
Wind  
Wind Speed 5 mph (SSE)    
Max Wind Speed 12 mph    
Max Gust Speed 15 mph    
Visibility 10 miles    
Events      
T = Trace of Precipitation, MM = Missing Value Source: NWS Daily Summary

Daily Weather History Graph

Daily Weather History Graph

Search for Another Location

Airport or City:

Trip Planner

Search our weather history database for the weather conditions in past years. The results will help you decide how hot, cold, wet, or windy it might be!

Date:

Astronomy

Jun. 17, 2014 Rise Set
Actual Time 5:47 AM PDT 8:28 PM PDT
Civil Twilight 5:16 AM PDT 8:59 PM PDT
Nautical Twilight 4:38 AM PDT 9:38 PM PDT
Astronomical Twilight 3:54 AM PDT 10:21 PM PDT
Moon No Moon Rise 11:01 AM PDT (6/17)
Length of Visible Light 15h 43m
Length of Day
14h 41m
Waning Gibbous, 72% of the Moon is Illuminated
Jun 17
Waning Gibbous
Jun 19
Last Quarter
Jun 27
New
Jul 5
First Quarter
Jul 12
Full

Hourly Weather History & Observations

Time (PDT) Temp. Dew Point Humidity Pressure Visibility Wind Dir Wind Speed Gust Speed Precip Events Conditions
12:53 AM 52.0 °F 46.0 °F 80% 29.94 in 10.0 mi Calm Calm - N/A   Clear
1:53 AM 50.0 °F 45.0 °F 83% 29.94 in 10.0 mi NNW 3.5 mph - N/A   Clear
2:53 AM 50.0 °F 46.0 °F 86% 29.94 in 10.0 mi Calm Calm - N/A   Scattered Clouds
3:00 AM 50.0 °F 46.4 °F 87% 29.94 in 10.0 mi Calm Calm - N/A   Mostly Cloudy
3:53 AM 52.0 °F 46.9 °F 83% 29.94 in 10.0 mi Calm Calm - N/A   Overcast
4:12 AM 51.8 °F 48.2 °F 88% 29.93 in 10.0 mi Calm Calm - N/A   Overcast
4:53 AM 53.1 °F 48.0 °F 83% 29.93 in 10.0 mi Calm Calm - N/A   Overcast
5:53 AM 53.1 °F 46.9 °F 80% 29.94 in 10.0 mi Calm Calm - N/A   Overcast
6:33 AM 53.6 °F 46.4 °F 77% 29.94 in 10.0 mi Calm Calm - N/A   Overcast
6:53 AM 54.0 °F 46.0 °F 75% 29.95 in 10.0 mi Calm Calm - N/A   Overcast
7:53 AM 55.9 °F 46.0 °F 69% 29.96 in 10.0 mi SW 3.5 mph - N/A   Overcast
8:50 AM 59.0 °F 46.4 °F 63% 29.96 in 10.0 mi East 4.6 mph - N/A   Partly Cloudy
8:53 AM 59.0 °F 46.0 °F 62% 29.96 in 10.0 mi ESE 5.8 mph - N/A   Partly Cloudy
9:53 AM 63.0 °F 46.0 °F 54% 29.96 in 10.0 mi Calm Calm - N/A   Clear
10:53 AM 66.9 °F 46.9 °F 49% 29.96 in 10.0 mi Variable 3.5 mph - N/A   Clear
11:53 AM 68.0 °F 48.0 °F 49% 29.96 in 10.0 mi SSW 8.1 mph - N/A   Clear
12:53 PM 70.0 °F 48.0 °F 46% 29.96 in 10.0 mi WSW 10.4 mph - N/A   Clear
1:53 PM 71.1 °F 46.9 °F 42% 29.95 in 10.0 mi South 10.4 mph - N/A   Clear
2:53 PM 73.9 °F 48.0 °F 40% 29.94 in 10.0 mi SSW 8.1 mph - N/A   Clear
3:53 PM 73.9 °F 46.0 °F 37% 29.94 in 10.0 mi South 9.2 mph - N/A   Clear
4:53 PM 71.1 °F 48.0 °F 44% 29.93 in 10.0 mi SE 5.8 mph - N/A   Clear
5:53 PM 66.0 °F 50.0 °F 56% 29.93 in 10.0 mi SSE 9.2 mph - N/A   Clear
6:53 PM 62.1 °F 50.0 °F 65% 29.93 in 10.0 mi ESE 8.1 mph - N/A   Clear
7:53 PM 59.0 °F 50.0 °F 72% 29.94 in 10.0 mi ESE 8.1 mph - N/A   Clear
8:53 PM 57.0 °F 48.9 °F 74% 29.94 in 10.0 mi ESE 5.8 mph - N/A   Clear
9:53 PM 55.9 °F 48.0 °F 75% 29.94 in 10.0 mi East 5.8 mph - N/A   Clear
10:53 PM 55.9 °F 48.0 °F 75% 29.95 in 10.0 mi Calm Calm - N/A   Clear
11:53 PM 54.0 °F 48.0 °F 80% 29.95 in 10.0 mi Calm Calm - N/A   Clear